{"data":{"norad_id":69489,"intl_designator":"2026-131M","name":"STARLINK-37831","alt_names":[],"object_type":"PAYLOAD","status":"ACTIVE","operator":null,"country":"US","launch_date":"2026-06-11","launch_site_code":"AFWTR","launch_vehicle":null,"mission":null,"orbit_class":"UNKNOWN","rcs_meters":null,"size_class":null,"mass_kg":null,"dimensions":null,"purposes":["comms"],"wikipedia_slug":null,"has_3d_model":false,"image_url":null,"decayed_at":null,"tle_current":{"epoch":"2026-09-20T00:22:28.926048Z","epoch_age_seconds":67275,"freshness":"FRESH","line1":"1 69489U 26131M   26263.01561257  .00009556  00000+0  29783-3 0  9991","line2":"2 69489  97.2844 283.8927 0001751 103.7914 256.3524 15.33455402 16826","mean_motion":15.33455402,"eccentricity":0.0001751,"inclination_deg":97.2844,"raan_deg":283.8927,"arg_perigee_deg":103.7914,"mean_anomaly_deg":256.3524,"bstar":0.00029783,"rev_number":1682,"period_min":93.90556765602,"perigee_km":464.3139026401,"apogee_km":466.71054859892,"semimajor_km":6843.6492256195,"source":"CELESTRAK","updated_at":"2026-09-20T09:00:44.207478Z"}}}